DW6455 Orivesi FI current weather conditions

sailwx.info

Wind from 030 at 6 knots gusting 11

Air temperature 2.2° C
Dewpoint 1.5° C

Last reported at 2014-Sep-22 21:52 UTC.
Time now 2014-Sep-22 22:20 UTC

Location: N 61°39' E 024°21'.
View on Google Maps.

See reports from other nearby stations

  
Tides and Currents Weather Stations Pressure Air Temp Water Temp Dewpoint Dewpoint Depression Visibility Wind Speed Wind Dir Waves Ship Positions
date/time (UTC)wind fromknots sea level pressurealtimeterstation pressurevisibilityair tempwater tempwave heightnotes
2014-Sep-22 21:52 030 6 gusting 11 2.2
2014-Sep-22 21:47 020 5 gusting 11 2.2
2014-Sep-22 21:42 005 4 gusting 9 2.2
2014-Sep-22 21:37 013 4 gusting 9 2.2
2014-Sep-22 21:32 020 4 gusting 9 2.2
2014-Sep-22 21:27 019 3 gusting 11 2.2
2014-Sep-22 21:22 028 4 gusting 11 2.2
2014-Sep-22 21:17 015 4 gusting 7 2.2
2014-Sep-22 21:12 030 3 gusting 9 2.2
2014-Sep-22 21:07 2.2
2014-Sep-22 21:02 014 4 gusting 11 2.2
2014-Sep-22 20:57 005 5 gusting 11 2.2
2014-Sep-22 20:52 039 6 gusting 15 2.2
2014-Sep-22 20:47 005 6 gusting 15 2.2
2014-Sep-22 20:42 074 6 gusting 17 2.2
2014-Sep-22 20:37 037 7 gusting 17 2.2
2014-Sep-22 20:32 028 8 gusting 21 2.2
2014-Sep-22 20:27 2.2
2014-Sep-22 20:22 015 7 gusting 21 2.2
2014-Sep-22 20:17 018 6 gusting 21 2.2
2014-Sep-22 20:12 030 5 gusting 14 2.8
2014-Sep-22 20:07 355 6 gusting 14 2.8
2014-Sep-22 20:02 337 6 gusting 13 2.8
2014-Sep-22 19:57 339 6 gusting 13 2.8
2014-Sep-22 19:52 044 5 gusting 13 2.8
2014-Sep-22 19:47 013 6 gusting 13 2.8
2014-Sep-22 19:42 023 6 gusting 16 2.8
2014-Sep-22 19:37 020 6 gusting 16 2.8
2014-Sep-22 19:32 050 7 gusting 16 2.8
2014-Sep-22 19:27 024 8 gusting 16 2.8
2014-Sep-22 19:22 355 8 gusting 15 2.8
2014-Sep-22 19:17 013 7 gusting 15 2.8
2014-Sep-22 19:12 346 6 gusting 13 2.8
2014-Sep-22 19:07 016 6 gusting 13 2.8
2014-Sep-22 19:02 029 6 gusting 19 2.8
2014-Sep-22 18:57 033 7 gusting 19 2.8
2014-Sep-22 18:52 059 9 gusting 19 2.8
2014-Sep-22 18:47 013 8 gusting 19 2.8
2014-Sep-22 18:42 017 9 gusting 19 2.8
2014-Sep-22 18:37 047 10 gusting 19 3.3
2014-Sep-22 18:32 021 8 gusting 19 3.3
2014-Sep-22 18:27 035 9 gusting 19 3.3
2014-Sep-22 18:22 020 9 gusting 20 3.3
2014-Sep-22 18:17 046 9 gusting 20 3.3
2014-Sep-22 18:12 005 8 gusting 15 3.3
2014-Sep-22 18:07 022 7 gusting 15 3.3
2014-Sep-22 18:02 025 8 gusting 14 3.3
2014-Sep-22 17:57 005 7 gusting 14 3.3
2014-Sep-22 17:52 018 7 gusting 18 3.3
2014-Sep-22 17:47 350 7 gusting 18 3.3
2014-Sep-22 17:42 329 8 gusting 16 3.3
2014-Sep-22 17:37 005 8 gusting 16 3.3
2014-Sep-22 17:32 028 9 gusting 20 3.3
2014-Sep-22 17:27 022 11 gusting 20 3.3
2014-Sep-22 17:22 019 11 gusting 19 3.3
2014-Sep-22 17:17 028 10 gusting 19 3.3
2014-Sep-22 17:12 035 10 gusting 19 3.3
2014-Sep-22 17:07 334 9 gusting 19 3.3
2014-Sep-22 17:02 022 10 gusting 19 3.3
2014-Sep-22 16:57 005 9 gusting 19 3.3
2014-Sep-22 16:52 036 7 gusting 18 3.3
2014-Sep-22 16:47 347 8 gusting 19 3.3
2014-Sep-22 16:42 005 9 gusting 19 3.3
2014-Sep-22 16:37 031 9 gusting 19 3.3
2014-Sep-22 16:32 018 8 gusting 18 3.3
2014-Sep-22 16:27 014 9 gusting 18 3.3
2014-Sep-22 16:22 028 8 gusting 18 3.9
2014-Sep-22 16:17 037 7 gusting 17 3.9
2014-Sep-22 16:12 355 7 gusting 19 3.9
2014-Sep-22 16:07 018 6 gusting 19 3.9
2014-Sep-22 16:02 021 6 gusting 13 3.9
2014-Sep-22 15:57 350 6 gusting 13 3.9
2014-Sep-22 15:52 009 7 gusting 18 3.9
2014-Sep-22 15:47 010 8 gusting 18 3.9
2014-Sep-22 15:42 011 8 gusting 18 3.9
2014-Sep-22 15:37 3.9
2014-Sep-22 15:32 355 8 gusting 14 3.9
2014-Sep-22 15:27 022 8 gusting 14 3.9
2014-Sep-22 15:22 011 7 gusting 14 3.9
2014-Sep-22 15:17 355 7 gusting 14 3.9
2014-Sep-22 15:12 3.9
2014-Sep-22 15:07 013 6 gusting 14 3.9
2014-Sep-22 15:02 325 9 gusting 17 3.9
2014-Sep-22 14:57 031 8 gusting 17 3.9
2014-Sep-22 14:52 005 6 gusting 17 3.9
2014-Sep-22 14:47 065 7 gusting 17 3.9
2014-Sep-22 14:42 348 8 gusting 17 3.9
2014-Sep-22 14:37 340 7 gusting 17 3.9
2014-Sep-22 14:32 028 6 gusting 18 3.9
2014-Sep-22 14:27 355 7 gusting 18 3.9
2014-Sep-22 14:22 023 9 gusting 18 3.9
2014-Sep-22 14:17 022 8 gusting 18 3.9
2014-Sep-22 14:12 022 7 gusting 16 3.9
2014-Sep-22 14:07 027 7 gusting 16 3.9
2014-Sep-22 14:02 3.9
2014-Sep-22 13:57 344 8 gusting 20 3.9
2014-Sep-22 13:52 050 10 gusting 20 3.9
2014-Sep-22 13:47 026 10 gusting 20 3.9
2014-Sep-22 13:42 045 8 gusting 15 3.9
2014-Sep-22 13:37 013 8 gusting 15 4.4
2014-Sep-22 13:32 011 8 gusting 15 4.4
2014-Sep-22 13:27 052 8 gusting 15 4.4
2014-Sep-22 13:22 018 8 gusting 15 4.4
2014-Sep-22 13:17 049 8 gusting 16 4.4
2014-Sep-22 13:12 030 9 gusting 15 4.4
2014-Sep-22 13:07 346 8 gusting 15 4.4
2014-Sep-22 13:02 348 8 gusting 15 4.4
2014-Sep-22 12:57 350 8 gusting 15 4.4
2014-Sep-22 12:52 5.0
2014-Sep-22 12:47 012 6 gusting 14 5.0
2014-Sep-22 12:42 5.0
2014-Sep-22 12:37 009 6 gusting 13 5.0
2014-Sep-22 12:32 034 6 gusting 14 5.0
2014-Sep-22 12:27 063 7 gusting 14 5.0
2014-Sep-22 12:22 040 8 gusting 16 5.0
2014-Sep-22 12:17 051 8 gusting 16 5.0
2014-Sep-22 12:12 059 8 gusting 14 5.0
2014-Sep-22 12:07 015 9 gusting 14 5.0
2014-Sep-22 12:02 013 7 gusting 14 5.0
2014-Sep-22 11:57 041 7 gusting 14 5.0
2014-Sep-22 11:52 5.0
2014-Sep-22 11:47 025 7 gusting 15 5.0
2014-Sep-22 11:42 355 7 gusting 16 5.0
2014-Sep-22 11:37 348 7 gusting 16 5.6
2014-Sep-22 11:32 011 6 gusting 15 5.6
2014-Sep-22 11:27 023 6 gusting 15 5.6
2014-Sep-22 11:22 348 7 gusting 15 5.0
2014-Sep-22 11:17 019 8 gusting 15 5.0
2014-Sep-22 11:12 028 6 gusting 11 5.6
2014-Sep-22 11:07 355 6 gusting 11 5.6
2014-Sep-22 11:02 355 6 gusting 17 5.6
2014-Sep-22 10:57 351 6 gusting 17 5.6
2014-Sep-22 10:52 019 7 gusting 17 5.6
2014-Sep-22 10:47 005 8 gusting 17 5.6
2014-Sep-22 10:42 055 8 gusting 16 5.6
2014-Sep-22 10:37 017 7 gusting 16 5.6
2014-Sep-22 10:32 009 8 gusting 18 5.6
2014-Sep-22 10:27 030 9 gusting 18 5.6
2014-Sep-22 10:22 015 10 gusting 19 5.6
2014-Sep-22 10:17 010 10 gusting 19 5.6
2014-Sep-22 10:12 034 9 gusting 19 5.6
2014-Sep-22 10:07 005 9 gusting 19 5.6
2014-Sep-22 10:02 017 9 gusting 15 5.6
2014-Sep-22 09:57 005 9 gusting 15 5.6
2014-Sep-22 09:52 035 9 gusting 15 5.6
2014-Sep-22 09:47 018 8 gusting 15 5.6
2014-Sep-22 09:42 5.6
2014-Sep-22 09:37 350 9 gusting 15 5.6
2014-Sep-22 09:32 017 8 gusting 15 5.6
2014-Sep-22 09:27 026 7 gusting 15 5.6
2014-Sep-22 09:22 022 6 gusting 15 5.6
2014-Sep-22 09:17 026 6 gusting 14 5.6
2014-Sep-22 09:12 024 6 gusting 14 5.6
2014-Sep-22 09:07 005 6 gusting 15 5.6
2014-Sep-22 09:02 051 6 gusting 15 5.6
2014-Sep-22 08:57 014 7 gusting 15 5.6
2014-Sep-22 08:52 019 7 gusting 17 5.6
2014-Sep-22 08:47 011 9 gusting 17 5.6
2014-Sep-22 08:42 039 9 gusting 17 5.6
2014-Sep-22 08:37 034 8 gusting 18 5.6
2014-Sep-22 08:32 023 8 gusting 18 5.6
2014-Sep-22 08:27 017 8 gusting 18 5.6
2014-Sep-22 08:22 005 7 gusting 19 5.6
2014-Sep-22 08:17 015 9 gusting 19 5.6
2014-Sep-22 08:12 346 10 gusting 19 5.6
2014-Sep-22 08:07 016 9 gusting 18 5.6
2014-Sep-22 08:02 024 8 gusting 15 6.1
2014-Sep-22 07:57 028 7 gusting 15 6.1
2014-Sep-22 07:52 005 6 gusting 13 6.1
2014-Sep-22 07:47 6.1
2014-Sep-22 07:42 031 8 gusting 18 6.1
2014-Sep-22 07:37 339 9 gusting 17 6.1
2014-Sep-22 07:32 030 9 gusting 18 6.1
2014-Sep-22 07:27 026 10 gusting 18 6.1
2014-Sep-22 07:22 034 10 gusting 19 6.1
2014-Sep-22 07:17 025 10 gusting 19 6.1
2014-Sep-22 07:12 018 11 gusting 19 6.7
2014-Sep-22 07:07 009 11 gusting 19 6.7
2014-Sep-22 07:02 015 10 gusting 18 6.7
2014-Sep-22 06:57 355 9 gusting 18 6.7
2014-Sep-22 06:52 016 8 gusting 16 7.2
2014-Sep-22 06:47 022 8 gusting 17 7.2
2014-Sep-22 06:42 022 9 gusting 17 7.2
2014-Sep-22 06:37 019 9 gusting 17 7.2
2014-Sep-22 06:32 021 9 gusting 16 7.2
2014-Sep-22 06:27 013 8 gusting 16 7.8
2014-Sep-22 06:22 042 6 gusting 16 7.8
2014-Sep-22 06:17 046 7 gusting 16 7.8
2014-Sep-22 06:12 033 8 gusting 16 7.8
2014-Sep-22 06:07 012 8 gusting 16 8.3
2014-Sep-22 06:02 024 8 gusting 14 8.3
2014-Sep-22 05:57 017 7 gusting 14 8.3
2014-Sep-22 05:52 026 6 gusting 14 8.3
2014-Sep-22 05:47 8.9
2014-Sep-22 05:42 020 6 gusting 14 8.9
2014-Sep-22 05:37 031 7 gusting 14 8.9
2014-Sep-22 05:32 041 6 gusting 14 8.9
2014-Sep-22 05:27 031 6 gusting 14 9.4
2014-Sep-22 05:22 054 6 gusting 16 9.4
2014-Sep-22 05:17 020 6 gusting 16 9.4
2014-Sep-22 05:12 005 6 gusting 16 9.4
2014-Sep-22 05:07 024 6 gusting 13 10.0
2014-Sep-22 05:02 036 6 gusting 13 10.0
2014-Sep-22 04:57 031 6 gusting 13 10.0
2014-Sep-22 04:52 009 6 gusting 13 10.6
2014-Sep-22 04:47 015 6 gusting 13 10.6
2014-Sep-22 04:42 005 4 gusting 9 10.6
2014-Sep-22 04:37 021 4 gusting 9 11.1
2014-Sep-22 04:32 016 4 gusting 10 11.1
2014-Sep-22 04:27 350 4 gusting 10 11.1
2014-Sep-22 04:22 022 4 gusting 10 11.1
2014-Sep-22 04:17 061 5 gusting 10 11.1
2014-Sep-22 04:12 022 5 gusting 9 11.1
2014-Sep-22 04:07 005 4 gusting 9 11.1
2014-Sep-22 04:02 011 5 gusting 12 11.1
2014-Sep-22 03:57 026 4 gusting 12 11.1
2014-Sep-22 03:52 017 4 gusting 11 11.1
2014-Sep-22 03:47 013 5 gusting 11 11.1
2014-Sep-22 03:42 028 4 gusting 9 11.1
2014-Sep-22 03:37 020 4 gusting 9 11.1
2014-Sep-22 03:32 013 4 gusting 8 11.1
2014-Sep-22 03:27 030 3 gusting 8 11.1
2014-Sep-22 03:22 011 4 gusting 9 11.1
2014-Sep-22 03:17 043 4 gusting 9 11.1
2014-Sep-22 03:12 017 4 gusting 9 11.1
2014-Sep-22 03:07 032 4 gusting 9 11.1
2014-Sep-22 03:02 028 4 gusting 8 11.1
2014-Sep-22 02:57 026 3 gusting 8 11.1
2014-Sep-22 02:52 028 4 gusting 11 11.1
2014-Sep-22 02:47 010 4 gusting 11 11.1
2014-Sep-22 02:42 042 4 gusting 10 11.1
2014-Sep-22 02:37 005 4 gusting 10 11.1
2014-Sep-22 02:32 037 4 gusting 9 11.1
2014-Sep-22 02:27 024 4 gusting 9 11.1
2014-Sep-22 02:22 011 5 gusting 9 11.1
2014-Sep-22 02:17 11.1
2014-Sep-22 02:12 347 4 gusting 9 11.1
2014-Sep-22 02:07 025 4 gusting 9 11.1
2014-Sep-22 02:02 355 4 gusting 9 11.1
2014-Sep-22 01:57 028 4 gusting 9 11.1
2014-Sep-22 01:52 015 5 gusting 8 11.1
2014-Sep-22 01:47 325 4 gusting 8 11.1
2014-Sep-22 01:42 340 3 gusting 7 11.1
2014-Sep-22 01:37 005 3 gusting 7 11.1
2014-Sep-22 01:32 11.1
2014-Sep-22 01:27 005 3 gusting 6 11.1
2014-Sep-22 01:22 329 3 gusting 6 11.1
2014-Sep-22 01:17 337 3 gusting 6 11.1
2014-Sep-22 01:12 11.1
2014-Sep-22 01:07 017 2 gusting 6 11.1
2014-Sep-22 01:02 026 2 gusting 7 11.7
2014-Sep-22 00:57 005 3 gusting 7 11.7
2014-Sep-22 00:52 005 3 gusting 6 11.7
2014-Sep-22 00:47 348 3 gusting 6 11.7
2014-Sep-22 00:42 355 1 gusting 6 11.7
2014-Sep-22 00:37 018 1 gusting 4 11.7
2014-Sep-22 00:32 028 2 gusting 6 11.7
2014-Sep-22 00:27 017 2 gusting 6 11.7
2014-Sep-22 00:22 017 2 gusting 6 11.7
2014-Sep-22 00:17 019 2 gusting 4 11.7
2014-Sep-22 00:12 015 2 gusting 4 11.7
2014-Sep-22 00:07 010 2 gusting 4 11.7
2014-Sep-22 00:02 010 2 gusting 4 11.7
2014-Sep-21 23:57 010 2 gusting 4 11.7
2014-Sep-21 23:52 005 2 gusting 4 11.7
2014-Sep-21 23:47 355 1 gusting 3 11.7
2014-Sep-21 23:42 350 1 gusting 3 11.7
2014-Sep-21 23:37 349 1 gusting 3 11.1
2014-Sep-21 23:32 349 1 gusting 4 11.1
2014-Sep-21 23:27 349 1 gusting 4 11.1
2014-Sep-21 23:22 350 2 gusting 4 11.1
2014-Sep-21 23:17 350 2 gusting 4 11.1
2014-Sep-21 23:12 349 2 gusting 3 11.1
2014-Sep-21 23:07 350 1 gusting 2 11.1
2014-Sep-21 23:02 349 0 gusting 2 11.1
2014-Sep-21 22:57 349 0 gusting 2 11.1
2014-Sep-21 22:52 350 1 gusting 2 11.1
2014-Sep-21 22:47 350 0 gusting 2 11.1
2014-Sep-21 22:42 349 11.1
2014-Sep-21 22:37 350 11.7
2014-Sep-21 22:32 349 11.7
2014-Sep-21 22:27 350 11.7
2014-Sep-21 22:22 349 11.7
2014-Sep-21 22:17 350 11.7
2014-Sep-21 22:12 349 11.7
2014-Sep-21 22:07 350 11.7
2014-Sep-21 22:02 349 11.7
2014-Sep-21 21:57 350 12.2
2014-Sep-21 21:52 350 0 gusting 3 12.2
2014-Sep-21 21:47 349 1 gusting 3 12.2
2014-Sep-21 21:42 350 1 gusting 3 12.2
2014-Sep-21 21:37 337 1 gusting 4 12.2
2014-Sep-21 21:32 337 1 gusting 4 12.2
2014-Sep-21 21:27 346 1 gusting 0 12.2
2014-Sep-21 21:22 346 0 gusting 0 12.8
2014-Sep-21 21:17 206 12.8
2014-Sep-21 21:12 206 12.8
2014-Sep-21 21:07 206 12.8
2014-Sep-21 21:02 206 12.8
2014-Sep-21 20:57 206 12.8
2014-Sep-21 20:52 206 12.8
2014-Sep-21 20:47 206 12.8
2014-Sep-21 20:42 205 12.8
2014-Sep-21 20:37 206 12.8
2014-Sep-21 20:32 206 12.8
2014-Sep-21 20:27 206 12.8
2014-Sep-21 20:22 206 13.3
2014-Sep-21 20:17 206 0 gusting 2 13.3
2014-Sep-21 20:12 206 0 gusting 4 12.8
2014-Sep-21 20:07 206 0 gusting 4 12.8
2014-Sep-21 20:02 206 1 gusting 4 12.8
2014-Sep-21 19:57 173 0 gusting 4 12.8
2014-Sep-21 19:52 177 0 gusting 4 12.8
2014-Sep-21 19:47 170 0 gusting 3 12.8
2014-Sep-21 19:42 171 0 gusting 3 12.8
2014-Sep-21 19:37 171 0 gusting 4 13.3
2014-Sep-21 19:32 171 0 gusting 5 13.3
2014-Sep-21 19:27 159 1 gusting 5 13.3
2014-Sep-21 19:22 161 1 gusting 5 13.3
2014-Sep-21 19:17 167 1 gusting 5 13.3
2014-Sep-21 19:12 169 1 gusting 5 13.3
2014-Sep-21 19:07 160 1 gusting 5 13.3
2014-Sep-21 19:02 161 2 gusting 6 13.3
2014-Sep-21 18:57 148 1 gusting 6 13.3
2014-Sep-21 18:52 172 1 gusting 6 13.3
2014-Sep-21 18:47 150 1 gusting 6 13.3
2014-Sep-21 18:42 164 2 gusting 7 13.3
2014-Sep-21 18:37 202 2 gusting 7 13.3
2014-Sep-21 18:32 175 2 gusting 6 13.3
2014-Sep-21 18:27 148 2 gusting 6 13.3
2014-Sep-21 18:22 164 1 gusting 6 13.3
2014-Sep-21 18:17 156 0 gusting 4 12.8
2014-Sep-21 18:12 198 0 gusting 4 12.8
2014-Sep-21 18:07 186 1 gusting 6 12.8
2014-Sep-21 18:02 142 2 gusting 6 12.8
2014-Sep-21 17:57 166 1 gusting 6 12.2
2014-Sep-21 17:52 149 0 gusting 6 12.2
2014-Sep-21 17:47 204 12.2
2014-Sep-21 17:42 241 12.2
2014-Sep-21 17:37 241 12.2
2014-Sep-21 17:32 241 12.2
2014-Sep-21 17:27 241 12.2
2014-Sep-21 17:22 241 12.2
2014-Sep-21 17:17 241 12.2
2014-Sep-21 17:12 241 12.2
2014-Sep-21 17:07 241 12.2
2014-Sep-21 17:02 241 12.8
2014-Sep-21 16:57 241 12.8
2014-Sep-21 16:52 241 12.8
2014-Sep-21 16:47 241 12.8
2014-Sep-21 16:42 241 12.8
2014-Sep-21 16:37 241 13.3
2014-Sep-21 16:32 241 13.3
2014-Sep-21 16:27 241 13.3
2014-Sep-21 16:22 241 13.3
2014-Sep-21 16:17 241 13.9
2014-Sep-21 16:12 241 13.9
2014-Sep-21 16:07 241 14.4
2014-Sep-21 16:02 241 14.4
2014-Sep-21 15:57 241 14.4
2014-Sep-21 15:52 241 14.4
2014-Sep-21 15:47 241 15.0
2014-Sep-21 15:42 241 15.0
2014-Sep-21 15:37 241 15.6
2014-Sep-21 15:32 241 15.6
2014-Sep-21 15:27 241 15.6
2014-Sep-21 15:22 241 15.6
2014-Sep-21 15:17 241 16.1
2014-Sep-21 15:12 241 16.1
2014-Sep-21 15:07 241 16.1
2014-Sep-21 15:02 241 16.7
2014-Sep-21 14:57 241 16.7
2014-Sep-21 14:52 241 16.7
2014-Sep-21 14:47 241 16.7
2014-Sep-21 14:42 241 17.2
2014-Sep-21 14:37 241 17.2
2014-Sep-21 14:32 241 17.2
2014-Sep-21 14:27 241 17.2
2014-Sep-21 14:22 241 17.2
2014-Sep-21 14:17 241 17.2
2014-Sep-21 14:12 241 17.2
2014-Sep-21 14:07 241 17.2
2014-Sep-21 14:02 241 17.2
2014-Sep-21 13:57 241 17.2
2014-Sep-21 13:52 241 17.2
2014-Sep-21 13:47 241 17.2
2014-Sep-21 13:42 241 17.2
2014-Sep-21 13:37 241 17.2
2014-Sep-21 13:32 241 0 gusting 2 17.2
2014-Sep-21 13:27 241 0 gusting 2 17.2
2014-Sep-21 13:22 241 17.2
2014-Sep-21 13:17 241 17.2
2014-Sep-21 13:12 241 17.2
2014-Sep-21 13:07 241 17.2
2014-Sep-21 13:02 241 17.2
2014-Sep-21 12:57 241 17.2
2014-Sep-21 12:52 241 17.2
2014-Sep-21 12:47 241 17.2
2014-Sep-21 12:42 241 17.2
2014-Sep-21 12:37 241 0 gusting 3 17.2
2014-Sep-21 12:32 241 0 gusting 3 17.2
2014-Sep-21 12:27 241 17.2
2014-Sep-21 12:22 241 17.2
2014-Sep-21 12:17 244 0 gusting 3 17.2
2014-Sep-21 12:12 244 0 gusting 3 16.7
2014-Sep-21 12:07 244 0 gusting 2 16.7
2014-Sep-21 12:02 244 0 gusting 4 16.7
2014-Sep-21 11:57 244 0 gusting 4 16.7
2014-Sep-21 11:52 244 0 gusting 4 16.7
2014-Sep-21 11:47 227 0 gusting 5 16.7
2014-Sep-21 11:42 236 0 gusting 6 16.7
2014-Sep-21 11:37 229 1 gusting 6 16.7
2014-Sep-21 11:32 214 1 gusting 8 16.7
2014-Sep-21 11:27 196 2 gusting 8 16.7
2014-Sep-21 11:22 261 2 gusting 8 16.7
2014-Sep-21 11:17 179 1 gusting 8 16.7
2014-Sep-21 11:12 243 1 gusting 10 16.7
2014-Sep-21 11:07 236 2 gusting 10 16.7
2014-Sep-21 11:02 270 2 gusting 6 16.1
2014-Sep-21 10:57 206 1 gusting 6 16.1
2014-Sep-21 10:52 225 16.1
2014-Sep-21 10:47 267 16.1
2014-Sep-21 10:42 231 16.1
2014-Sep-21 10:37 231 0 gusting 4 16.1
2014-Sep-21 10:32 231 0 gusting 4 16.1
2014-Sep-21 10:27 216 0 gusting 4 16.1
2014-Sep-21 10:22 244 16.1
2014-Sep-21 10:17 273 16.1
2014-Sep-21 10:12 273 0 gusting 6 16.1
2014-Sep-21 10:07 273 0 gusting 6 16.1
2014-Sep-21 10:02 250 0 gusting 9 16.1
2014-Sep-21 09:57 290 2 gusting 9 16.1
2014-Sep-21 09:52 281 3 gusting 9 16.1
2014-Sep-21 09:47 223 3 gusting 9 16.1
2014-Sep-21 09:42 233 2 gusting 9 16.1
2014-Sep-21 09:37 276 2 gusting 10 16.1
2014-Sep-21 09:32 180 3 gusting 10 16.1
2014-Sep-21 09:27 216 4 gusting 6 16.1
2014-Sep-21 09:22 170 3 gusting 6 15.6
2014-Sep-21 09:17 220 1 gusting 6 15.6
2014-Sep-21 09:12 217 0 gusting 6 15.6
2014-Sep-21 09:07 293 0 gusting 6 15.6
2014-Sep-21 09:02 293 1 gusting 6 15.6
2014-Sep-21 08:57 299 1 gusting 6 15.6
2014-Sep-21 08:52 299 1 gusting 7 16.1
2014-Sep-21 08:47 292 2 gusting 7 15.6
2014-Sep-21 08:42 252 2 gusting 11 15.6
2014-Sep-21 08:37 194 3 gusting 11 15.6
2014-Sep-21 08:32 213 5 gusting 12 15.6
2014-Sep-21 08:27 239 5 gusting 12 15.6
2014-Sep-21 08:22 209 2 gusting 12 15.6
2014-Sep-21 08:17 235 0 gusting 5 15.6
2014-Sep-21 08:12 238 0 gusting 5 15.6
2014-Sep-21 08:07 285 0 gusting 8 15.6
2014-Sep-21 08:02 229 1 gusting 9 15.0
2014-Sep-21 07:57 223 2 gusting 9 15.0
2014-Sep-21 07:52 220 3 gusting 9 15.0
2014-Sep-21 07:47 217 4 gusting 12 15.0
2014-Sep-21 07:42 296 3 gusting 12 14.4
2014-Sep-21 07:37 236 2 gusting 10 14.4
2014-Sep-21 07:32 225 3 gusting 9 14.4
2014-Sep-21 07:27 219 3 gusting 9 14.4
2014-Sep-21 07:22 240 2 gusting 9 14.4
2014-Sep-21 07:17 190 2 gusting 9 13.9
2014-Sep-21 07:12 205 3 gusting 10 13.9
2014-Sep-21 07:07 221 4 gusting 10 13.3
2014-Sep-21 07:02 225 3 gusting 12 13.3
2014-Sep-21 06:57 230 3 gusting 12 13.3
2014-Sep-21 06:52 254 3 gusting 12 13.3
2014-Sep-21 06:47 192 2 gusting 10 13.3
2014-Sep-21 06:42 263 2 gusting 6 13.3
2014-Sep-21 06:37 229 1 gusting 6 13.3
2014-Sep-21 06:32 224 0 gusting 8 13.3
2014-Sep-21 06:27 186 0 gusting 8 13.3
2014-Sep-21 06:22 203 2 gusting 8 13.3
2014-Sep-21 06:17 252 2 gusting 7 13.3
2014-Sep-21 06:12 204 1 gusting 11 13.3
2014-Sep-21 06:07 184 2 gusting 11 13.3
2014-Sep-21 06:02 210 2 gusting 9 13.3
2014-Sep-21 05:57 246 1 gusting 9 13.3
2014-Sep-21 05:52 217 2 gusting 9 13.3
2014-Sep-21 05:47 234 3 gusting 6 13.3
2014-Sep-21 05:42 225 1 gusting 7 13.3
2014-Sep-21 05:37 225 1 gusting 7 12.8
2014-Sep-21 05:32 224 1 gusting 6 12.8
2014-Sep-21 05:27 267 2 gusting 6 12.8
2014-Sep-21 05:22 236 2 gusting 6 12.8
2014-Sep-21 05:17 231 2 gusting 6 12.8
2014-Sep-21 05:12 213 2 gusting 6 12.8
2014-Sep-21 05:07 226 2 gusting 6 12.8
2014-Sep-21 05:02 192 2 gusting 9 12.8
2014-Sep-21 04:57 199 2 gusting 9 12.8
2014-Sep-21 04:52 231 2 gusting 6 12.8
2014-Sep-21 04:47 259 2 gusting 6 12.8
2014-Sep-21 04:42 244 2 gusting 6 12.8
2014-Sep-21 04:37 194 3 gusting 6 12.8
2014-Sep-21 04:32 180 2 gusting 6 12.8
2014-Sep-21 04:27 208 1 gusting 6 12.8
2014-Sep-21 04:22 228 1 gusting 5 12.8
2014-Sep-21 04:17 218 1 gusting 5 12.8
2014-Sep-21 04:12 171 1 gusting 5 12.8
2014-Sep-21 04:07 189 1 gusting 5 12.8
2014-Sep-21 04:02 192 0 gusting 5 12.8
2014-Sep-21 03:57 151 0 gusting 5 12.8
2014-Sep-21 03:52 163 0 gusting 5 12.8
2014-Sep-21 03:47 223 0 gusting 5 12.8
2014-Sep-21 03:42 231 1 gusting 6 12.8
2014-Sep-21 03:37 110 1 gusting 6 12.8
2014-Sep-21 03:32 188 1 gusting 4 12.8
2014-Sep-21 03:27 196 0 gusting 4 12.2
2014-Sep-21 03:22 192 0 gusting 5 12.2
2014-Sep-21 03:17 192 1 gusting 5 12.8
2014-Sep-21 03:12 221 2 gusting 7 12.8
2014-Sep-21 03:07 227 2 gusting 7 12.8
2014-Sep-21 03:02 208 2 gusting 8 12.8
2014-Sep-21 02:57 225 2 gusting 8 12.8
2014-Sep-21 02:52 222 2 gusting 6 12.8
2014-Sep-21 02:47 240 1 gusting 6 12.8
2014-Sep-21 02:42 217 1 gusting 6 12.8
2014-Sep-21 02:37 206 2 gusting 6 12.8
2014-Sep-21 02:32 202 2 gusting 6 12.8
2014-Sep-21 02:27 186 2 gusting 6 12.8
2014-Sep-21 02:22 196 1 gusting 5 12.8
2014-Sep-21 02:17 265 0 gusting 5 12.8
2014-Sep-21 02:12 237 1 gusting 5 12.8
2014-Sep-21 02:07 226 0 gusting 5 12.8
2014-Sep-21 02:02 252 0 gusting 6 12.8
2014-Sep-21 01:57 229 1 gusting 6 12.8
2014-Sep-21 01:52 195 1 gusting 6 12.2
2014-Sep-21 01:47 217 1 gusting 6 12.2
2014-Sep-21 01:42 238 0 gusting 6 12.2
2014-Sep-21 01:37 225 0 gusting 4 12.2
2014-Sep-21 01:32 242 0 gusting 3 12.2
2014-Sep-21 01:27 249 0 gusting 3 12.2
2014-Sep-21 01:22 236 0 gusting 6 12.2
2014-Sep-21 01:17 240 0 gusting 7 12.2
2014-Sep-21 01:12 202 1 gusting 11 12.2
2014-Sep-21 01:07 229 3 gusting 11 12.8
2014-Sep-21 01:02 215 3 gusting 9 12.8
2014-Sep-21 00:57 242 2 gusting 9 12.8
2014-Sep-21 00:52 240 2 gusting 6 12.8
2014-Sep-21 00:47 298 1 gusting 7 12.8
2014-Sep-21 00:42 234 0 gusting 7 12.2
2014-Sep-21 00:37 208 0 gusting 7 12.2
2014-Sep-21 00:32 227 0 gusting 7 12.2
2014-Sep-21 00:27 226 1 gusting 7 12.2
2014-Sep-21 00:22 207 0 gusting 6 12.2
2014-Sep-21 00:17 211 0 gusting 6 11.7
2014-Sep-21 00:12 211 1 gusting 6 11.7
2014-Sep-21 00:07 250 1 gusting 5 11.7
2014-Sep-21 00:02 229 0 gusting 6 12.2
2014-Sep-20 23:57 216 0 gusting 6 12.2
2014-Sep-20 23:52 231 1 gusting 6 12.2
2014-Sep-20 23:47 231 1 gusting 6 12.2
2014-Sep-20 23:42 238 0 gusting 6 12.2
2014-Sep-20 23:37 216 12.2
2014-Sep-20 23:32 216 0 gusting 4 12.2
2014-Sep-20 23:27 216 0 gusting 4 12.2
2014-Sep-20 23:22 199 0 gusting 4 12.2
2014-Sep-20 23:17 140 12.2
2014-Sep-20 23:12 191 12.2
2014-Sep-20 23:07 192 12.2
2014-Sep-20 23:02 191 0 gusting 3 12.2
2014-Sep-20 22:57 238 0 gusting 3 12.2
2014-Sep-20 22:52 238 0 gusting 3 12.2
2014-Sep-20 22:47 201 0 gusting 3 12.2
2014-Sep-20 22:42 232 0 gusting 4 11.7
2014-Sep-20 22:37 196 0 gusting 4 11.7
2014-Sep-20 22:32 229 0 gusting 3 11.7
2014-Sep-20 22:27 231 0 gusting 3 11.7
2014-Sep-20 22:22 220 0 gusting 4 11.7
2014-Sep-20 22:17 218 0 gusting 4 11.7
2014-Sep-20 22:12 200 0 gusting 4 11.1
2014-Sep-20 22:07 196 0 gusting 2 11.1
2014-Sep-20 22:02 196 0 gusting 2 11.7